Location: Calais Saint-Pierre
(50.9509°N, 1.8522°E)
Time: 11:39:26
(UTC+00:00)

Cosmos 2058 Rocket - Pass Details

Date: 15 May 2026
Orbit: 604 x 632 km, 82.5° (Epoch: 8 June)

Event Time Altitude Azimuth Distance (km) Brightness Sun altitude
Exits shadow 22:30:59 34° 190° (S) 1,004 3.7 -17.9°
Maximum altitude 22:32:50 89° 280° (W) 614 3.0 -18.0°
Drops below altitude 10° 22:37:11 10° 10° (N) 1,965 6.6 -18.2°
Sets 22:39:24 0° 11° (N) 2,873 7.6 -18.4°
